Regional Weather Roundup
Issued by NWS

Home | Current Version | Previous Version | Text Only | Print | Product List | Glossary Off
Versions: 1 2 3 4 5 6 7 8 9 10 11 12 13 14 15 16 17 18 19 20 21 22 23 24 25 26 27 28 29 30 31 32 33 34 35 36 37 38 39 40 41 42 43 44 45 46 47 48 49 50

000
ASUS43 KDMX 100808
RWRIA

WEATHER ROUNDUP FOR IOWA
NATIONAL WEATHER SERVICE DES MOINES IA
200 AM CST WED FEB 10 2016

NOTE: "FAIR" INDICATES FEW OR NO CLOUDS BELOW 12,000 FEET WITH NO
SIGNIFICANT WEATHER AND/OR OBSTRUCTIONS TO VISIBILITY.

* - THESE STATIONS ARE NOT NWS STATIONS...THUS NOT UNDER NWS
QUALITY CONTROL.  THEY ALSO DO NOT REPORT WEATHER SUCH
AS PRECIPITATION OR FOG.

IAZ001>003-012>014-020>022-031>034-043>046-100900-
   NORTHWEST IOWA

CITY           SKY/WX    TMP DP  RH WIND       PRES   REMARKS
CARROLL *      CLOUDY    18  12  79 W6        30.13S WCI   9
CHEROKEE *     CLOUDY    18  14  86 CALM      30.12F
DENISON *      MOCLDY    18  12  79 CALM      30.11F
LE MARS *      CLOUDY    19  16  86 CALM      30.13S
ORANGE CITY *  CLOUDY    19  14  79 CALM      30.10F
SHELDON *      CLOUDY    18  14  86 CALM      30.09F
SIOUX CITY     CLOUDY    19  13  77 E7        30.12F WCI  10
SPENCER        CLOUDY    17  10  74 N5        30.11F WCI  10
STORM LAKE *   CLOUDY    18  14  86 W7        30.11S WCI   8
$$

IAZ055>058-069>071-079>083-090>094-100900-
   SOUTHWEST IOWA

CITY           SKY/WX    TMP DP  RH WIND       PRES   REMARKS
ATLANTIC *     CLOUDY    19  12  73 SW5       30.14F WCI  13
AUDUBON *      CLOUDY    19  14  79 CALM      30.13S
CLARINDA *     CLEAR     18  14  86 CALM      30.20F
COUNCIL BLFS * PTCLDY    16  12  86 S6        30.14F WCI   7
CRESTON *      MOCLDY    18  12  79 NW6       30.14F WCI   9
HARLAN  *      CLEAR     18  12  79 SW5       30.17F WCI  11
LAMONI         CLOUDY    20  12  71 NW7       30.14F WCI  11
RED OAK *      CLEAR     18  16  93 SW6       30.17F WCI   9
SHENANDOAH *   PTCLDY    19  16  86 CALM      30.19F
$$

IAZ047>049-059>061-072>074-084-100900-
   CENTRAL IOWA

CITY           SKY/WX    TMP DP  RH WIND       PRES   REMARKS
AMES           MOCLDY    12   6  77 N12       30.14S WCI  -2
ANKENY *       CLOUDY    14   7  73 NW7       30.16S WCI   4
BOONE *        CLOUDY    12   7  79 N6        30.12F WCI   3
CHARITON *     PTCLDY    12   7  79 NW7       30.15S WCI   2
DES MOINES     MOCLDY    15   7  70 N5        30.16S WCI   8
GRINNELL*      CLEAR      9   5  85 NW6       30.12F WCI  -1
KNOXVILLE *    CLEAR     12   5  73 NW7       30.13F WCI   2
MARSHALLTOWN   CLEAR      6   1  80 NW9       30.12F WCI  -8
NEWTON *       CLEAR     10   5  79 N9        30.13S WCI  -2
PELLA *        CLEAR     10   5  79 CALM      30.16S
$$

IAZ004>006-015-016-023>025-035-036-100900-
   NORTH CENTRAL IOWA

CITY           SKY/WX    TMP DP  RH WIND       PRES   REMARKS
ALGONA *       CLOUDY    12   7  79 N14       30.10F WCI  -3
CLARION *      PTCLDY     3   0  85 NW7       30.12F WCI  -9
ESTHERVILLE    CLOUDY    13   8  81 N9        30.10F WCI   1
FORT DODGE *   CLOUDY    10   7  85 N3        30.13F
MASON CITY     CLOUDY     4   0  83 NW12      30.11F WCI -12
FOREST CITY *  CLEAR      7   3  85 NW9       30.10F WCI  -7
WEBSTER CITY * CLOUDY     7   1  78 NW6       30.11F WCI  -3
IOWA FALLS *     N/A      5   0  78 NW8       30.13S WCI  -8
$$

IAZ007>011-017>019-026>030-037>042-050>054-066-100900-
   NORTHEAST IOWA

CITY           SKY/WX    TMP DP  RH WIND       PRES   REMARKS
CEDAR RAPIDS   CLEAR      5   1  83 NW9       30.10S WCI  -9
CHARLES CITY * MOCLDY     3  -2  78 NW10      30.10F WCI -12
CLINTON *      CLEAR      8   1  73 NW9       30.07S WCI  -5
DECORAH *      CLEAR      1  -6  71 NW7       30.06S WCI -11
DUBUQUE        CLEAR      7  -2  66 NW13      30.03F WCI  -9
MONTICELLO *   CLEAR      7  -2  66 NW5       30.08S WCI  -2
OELWEIN *      PTCLDY     1  -6  71 NW10      30.09S WCI -14
WATERLOO       PTCLDY     4  -2  76 W7        30.11F WCI  -8
$$

IAZ064-065-067-068-078-100900-
   EAST CENTRAL IOWA

CITY           SKY/WX    TMP DP  RH WIND       PRES   REMARKS
DAVENPORT      CLEAR      8   0  69 NW8       30.07F WCI  -4
IOWA CITY      CLEAR      9   1  70 NW8       30.13F WCI  -3
MT. PLEASANT * CLEAR     14   5  67 W8        30.13F WCI   3
MUSCATINE *    CLEAR      9   1  72 NW7       30.13F WCI  -3
QUAD CITIES    CLEAR     11   0  61 NW12      30.09F WCI  -3
$$

IAZ062-063-075>077-085>089-095>099-100900-
   SOUTHEAST IOWA

CITY           SKY/WX    TMP DP  RH WIND       PRES   REMARKS
BURLINGTON     CLEAR     10   3  73 NW7       30.11F WCI  -1
FAIRFIELD *    CLEAR     10   3  72 NW10      30.13F WCI  -3
FORT MADISON * CLEAR     10   3  72 NW12      30.13F WCI  -4
KEOKUK *       CLEAR     12   5  73 NW7G14    30.14F WCI   2
OSKALOOSA *      N/A     10   7  85 NW9       30.14S WCI  -2
CENTERVILLE *  CLEAR     10   9  92 CALM      30.16F
OTTUMWA        CLEAR     11   6  81 NW13      30.14F WCI  -4
WASHINGTON *   CLEAR     10   1  67 NW9       30.14S WCI  -2
$$

ABBREVIATIONS USED IN REMARKS
   TC - TEMPERATURES IN CELSIUS
  WCI - WIND CHILL INDEX
   HX - HEAT INDEX
  VSB - VISIBILITY
$$




USA.gov is the U.S. government's official web portal to all federal, state and local government web resources and services.